Wind_Speed
15 15 13 13 12 10 8 7 8 8 8 8 8 7 7 7 7 7 6 7 8 10 9 6 6 5 7 9 5 5 8 8 10 10 9 9 9 9 9 9 10 11 11 11 12 12 11 11 11 11 11 10 10 10 10 10 10 10 9 9 9 9 9 9 10 9 9 9 9 10 10 11 11 12 13 13 13 13 13 13 13 13 13 13 13
14 15 13 13 12 10 8 7 7 8 8 8 7 7 7 7 7 6 6 6 7 9 7 4 4 4 7 9 6 5 7 6 7 10 11 11 9 9 10 9 10 11 12 12 12 12 12 12 11 11 11 10 10 10 10 10 10 10 10 10 10 10 10 10 10 10 10 10 10 10 10 10 11 11 11 12 12 12 12 12 12 13 13 13 14
13 13 12 12 11 9 8 7 7 8 8 8 7 6 6 6 5 5 5 5 7 8 5 2 3 4 6 8 7 6 5 4 8 10 10 10 10 11 10 10 10 11 11 11 11 11 12 12 11 11 10 10 10 10 10 10 10 10 10 11 11 11 11 11 11 11 11 11 10 10 10 10 10 10 10 10 11 11 11 11 12 13 13 14 14
12 11 11 11 11 8 6 6 7 8 8 8 7 6 5 5 4 4 5 6 7 7 3 2 2 4 6 6 6 7 5 5 8 8 7 8 9 11 10 10 10 10 10 10 10 11 11 11 11 10 10 9 10 10 10 10 10 10 10 11 11 11 11 12 12 12 12 11 11 10 10 9 9 9 9 10 10 10 10 11 11 12 13 13 14
12 12 12 12 10 7 6 6 7 8 8 7 6 5 4 4 4 5 6 6 6 5 1 1 2 5 6 4 5 5 5 5 6 7 7 8 9 10 9 9 8 8 8 8 9 9 10 10 10 10 10 10 10 9 9 9 10 10 10 10 11 11 11 12 12 12 12 11 10 10 9 9 8 8 8 8 8 9 9 9 10 11 11 12 12
12 13 13 13 11 8 6 7 8 9 8 7 6 5 4 4 5 6 6 6 5 4 1 1 2 4 5 5 5 4 4 6 6 7 8 8 9 9 7 7 6 6 6 6 6 7 7 8 8 9 9 10 10 10 9 9 9 9 10 10 11 11 11 11 11 11 11 10 9 9 8 7 7 6 6 6 7 7 8 8 9 9 10 10 10
11 12 14 12 10 9 6 7 9 9 8 7 6 5 4 5 5 5 5 5 4 3 2 2 2 3 4 4 4 3 4 5 6 8 8 8 8 6 5 4 3 4 4 4 3 4 4 5 6 7 8 9 9 9 9 9 9 9 9 10 10 10 10 10 10 10 9 9 8 7 6 5 5 5 6 7 7 8 8 8 9 9 9 9 9
10 12 13 12 10 9 8 8 9 9 8 6 5 5 5 4 5 5 5 4 4 3 3 1 2 2 2 3 4 4 4 5 7 8 8 7 6 5 4 3 2 3 3 3 3 2 3 3 5 6 7 7 7 8 8 8 8 8 8 8 8 8 8 8 8 7 7 7 6 5 5 5 5 6 7 8 8 8 8 8 8 9 9 9 8
11 12 12 13 11 10 9 9 9 8 7 6 5 5 5 4 5 5 4 4 4 4 2 1 2 2 2 3 4 5 5 6 7 8 7 6 6 5 4 3 1 2 3 3 3 3 3 3 3 4 4 5 5 6 5 6 6 7 6 6 6 6 6 5 5 5 5 5 5 5 5 5 6 7 8 8 8 8 8 8 8 8 8 8 8
13 12 12 14 12 11 10 10 8 8 7 7 6 6 5 4 5 5 5 5 5 4 3 2 2 2 1 3 4 5 5 6 8 8 6 6 6 4 4 3 1 1 1 1 1 1 2 2 2 1 1 2 3 3 3 3 4 5 4 3 3 3 3 4 4 3 4 4 4 4 5 5 6 6 6 7 7 7 7 7 7 7 7 7 6
13 13 12 13 13 10 9 9 8 7 8 7 7 6 5 5 6 6 6 6 6 6 4 3 3 3 1 2 4 5 6 6 8 8 7 7 7 6 5 3 1 1 2 2 3 2 1 1 1 1 2 2 1 1 0 1 2 3 3 3 3 2 2 2 2 2 3 3 3 4 4 4 5 5 5 5 6 6 6 7 7 7 7 7 7
12 13 13 13 12 9 8 8 7 8 8 7 6 6 6 7 7 7 7 7 7 7 5 4 4 4 3 2 3 5 6 6 6 6 6 6 6 6 5 5 4 4 4 4 5 4 3 2 2 3 3 4 3 3 2 1 1 1 1 2 1 1 1 1 1 1 2 2 3 3 3 4 4 4 5 5 5 5 6 7 8 9 9 9 9
13 13 14 14 11 10 10 8 8 9 8 7 6 6 7 7 7 7 7 7 8 7 6 5 5 5 4 4 3 4 4 4 4 4 4 4 5 5 5 5 6 6 6 6 6 5 5 4 4 4 5 5 4 3 3 2 2 1 1 1 1 1 1 1 0 1 2 2 3 3 4 4 5 5 5 5 6 6 7 9 10 10 10 10 11
12 13 14 14 11 10 10 9 8 9 8 8 7 7 7 7 6 6 6 7 7 7 7 6 6 5 5 4 4 4 3 3 3 3 3 2 3 4 4 4 5 7 8 7 6 6 5 5 5 5 5 5 4 4 4 3 3 3 3 3 3 2 2 1 1 1 2 3 3 4 4 5 6 6 7 7 7 8 8 9 11 11 12 12 12
11 12 14 14 12 10 9 9 9 10 9 8 7 7 7 6 6 6 6 7 7 7 7 7 6 5 5 5 4 3 3 3 2 2 2 2 2 2 3 3 3 4 6 6 5 5 5 4 4 4 4 4 4 3 4 4 4 3 3 3 2 2 1 1 0 1 2 3 3 4 4 5 5 6 6 7 8 8 9 10 11 12 12 13 13
12 13 13 13 12 9 9 10 10 10 9 8 8 7 7 6 6 6 6 7 7 8 8 8 7 6 5 5 5 4 3 3 2 1 1 1 1 1 1 2 2 2 4 5 4 3 3 3 3 3 3 3 3 3 3 3 3 2 1 1 1 1 1 1 1 1 1 2 3 3 4 4 5 5 6 7 8 9 9 10 11 12 13 14 14
11 12 13 12 10 9 10 10 9 10 9 8 8 7 7 6 6 6 6 6 7 8 8 8 8 7 6 5 5 5 4 3 2 1 1 1 1 1 1 1 2 2 2 3 3 3 3 3 3 3 2 3 3 2 2 2 2 2 2 2 2 3 3 3 3 3 3 3 4 4 5 5 6 7 7 8 9 9 10 11 11 12 13 14 14
12 13 13 12 10 10 10 9 9 9 9 8 7 6 6 5 5 6 6 6 7 8 8 8 8 7 6 5 5 6 6 5 4 3 3 2 2 2 1 2 2 2 2 2 3 4 3 3 4 3 2 2 2 2 2 2 3 3 3 3 4 4 5 5 5 5 5 6 6 7 7 7 8 8 9 9 10 10 11 11 12 12 13 13 14
14 14 13 12 11 10 10 9 9 9 9 8 7 6 6 5 5 6 7 7 7 8 8 8 8 7 7 5 6 7 6 6 5 4 4 3 3 2 2 2 2 2 2 2 3 4 3 3 2 2 2 2 2 2 3 3 3 3 4 4 5 6 6 6 7 7 7 7 8 8 8 9 9 9 10 10 10 11 11 11 12 12 12 13 13
14 13 12 12 11 10 10 10 10 9 9 8 7 7 7 6 7 8 8 8 8 8 9 8 7 7 7 6 6 7 6 5 5 4 4 4 4 4 3 3 3 2 2 2 3 3 2 1 1 1 1 1 2 3 3 4 4 4 5 5 6 7 7 7 7 8 8 8 9 9 9 9 10 10 10 10 11 11 11 12 12 12 13 13 13
13 13 12 12 11 10 10 11 11 10 9 9 8 8 7 8 8 9 9 9 9 8 9 8 8 8 8 7 7 7 7 6 6 6 5 5 5 5 4 4 3 2 2 3 2 1 0 1 1 1 1 2 3 3 4 4 5 5 6 6 6 7 7 7 8 8 9 9 10 10 10 10 10 11 11 11 11 12 12 12 12 12 13 13 13
12 12 12 12 12 11 11 12 12 11 10 9 9 9 9 10 10 10 10 10 9 9 8 8 8 8 8 7 7 8 8 8 8 8 8 7 6 7 6 5 4 4 3 2 2 1 1 3 3 2 2 3 3 4 4 5 5 5 6 6 6 6 6 7 8 8 9 10 10 10 11 11 11 11 11 12 12 12 12 12 13 13 13 13 13
12 12 13 13 13 12 13 13 12 11 10 10 10 10 10 11 11 10 10 10 9 8 8 7 8 8 8 8 8 9 10 10 10 10 9 8 8 8 7 7 6 5 5 4 2 2 2 3 4 2 2 3 3 3 4 4 5 5 5 5 5 5 6 7 7 8 9 9 10 10 11 11 10 10 10 11 11 11 12 12 12 13 13 13 13
12 13 14 14 14 13 13 12 12 11 10 10 11 11 11 11 11 10 10 10 9 8 8 8 8 8 9 9 10 11 11 11 11 11 10 9 9 8 8 8 7 6 5 4 3 2 2 4 4 2 2 2 2 2 3 4 4 4 5 5 5 5 6 6 7 7 8 9 9 10 10 10 10 10 10 10 10 11 11 12 12 13 13 14 15
14 14 15 15 14 14 13 13 12 12 12 12 13 13 13 12 12 11 10 10 9 9 9 9 9 9 10 11 12 13 13 12 12 11 11 10 9 8 9 9 8 7 6 4 3 3 4 5 4 2 2 2 2 2 3 3 4 4 5 5 5 5 5 6 6 6 7 7 8 9 10 10 10 10 10 11 11 11 12 13 13 14 15 16 17
15 15 15 15 15 15 15 15 14 14 14 14 15 14 14 13 13 12 11 11 11 10 10 10 10 10 10 11 13 14 13 13 13 12 11 11 10 9 9 9 8 8 7 5 4 4 4 5 3 2 2 2 2 2 2 3 4 4 5 5 5 5 5 5 5 6 6 7 8 9 10 11 11 11 12 12 12 12 13 14 14 15 16 17 18
15 15 16 16 17 17 17 17 17 16 16 16 16 15 15 14 14 13 12 11 12 12 11 10 10 10 10 11 13 14 13 13 13 12 11 11 10 10 10 10 9 8 7 6 5 5 5 5 3 2 2 2 2 2 2 3 4 5 6 5 5 5 5 5 6 6 7 8 9 10 11 11 12 12 12 12 13 13 13 14 14 15 16 17 18
16 16 17 18 18 18 18 18 18 18 18 18 17 17 16 16 15 15 14 13 13 13 11 10 10 10 11 12 13 14 13 12 12 12 10 10 10 9 10 9 8 8 8 7 6 6 6 6 3 2 3 3 3 3 3 4 5 6 6 6 6 6 6 6 7 8 8 8 10 11 12 12 12 12 12 12 13 13 13 13 14 14 15 16 17
18 18 18 18 19 20 20 20 20 19 19 19 19 18 18 18 18 17 16 15 15 13 11 10 10 10 11 12 13 14 12 11 11 11 10 9 9 9 9 8 8 9 9 7 6 6 7 6 4 3 3 4 4 4 5 6 6 7 7 7 7 7 8 8 8 8 9 10 11 12 12 13 13 13 13 13 13 13 13 14 14 15 16 16 17
19 19 19 19 19 20 20 20 21 21 20 20 20 20 19 19 19 18 17 16 16 14 12 11 11 11 11 12 13 14 12 10 11 12 10 10 9 9 9 9 9 9 8 7 7 7 7 5 4 4 4 5 6 6 7 7 8 9 8 8 8 8 8 9 9 9 10 11 12 12 13 13 13 13 13 13 13 14 14 15 16 16 17 18 18
18 19 19 19 19 19 20 20 21 21 21 21 21 21 21 21 20 19 17 17 17 15 13 13 12 12 12 12 13 13 13 11 11 12 11 10 10 9 10 10 10 9 8 7 7 7 7 6 5 5 6 7 8 8 9 9 10 10 9 9 9 9 9 10 10 11 11 12 12 13 13 13 13 13 13 14 14 15 16 16 17 18 18 19 19
17 19 19 19 19 19 19 20 21 21 21 22 22 22 22 22 21 19 18 18 17 16 15 14 13 13 13 12 12 13 13 13 12 12 11 11 10 10 10 11 10 9 8 8 7 7 8 8 7 7 8 9 9 10 10 10 11 11 10 10 10 11 11 11 12 12 13 13 13 13 13 14 14 14 15 16 17 17 18 18 18 19 20 20 20
17 18 19 19 19 19 20 20 21 21 22 22 23 23 23 22 21 20 19 18 18 18 17 15 14 14 13 12 12 12 13 12 12 12 11 10 10 10 10 10 9 9 8 8 8 8 9 10 10 9 10 11 11 12 12 12 11 12 12 12 12 13 13 13 14 14 14 14 14 14 15 15 16 17 18 19 20 20 20 20 20 20 20 21 21
19 20 20 20 20 20 20 20 21 22 23 23 23 23 23 22 22 21 19 19 19 19 17 16 15 15 14 13 12 12 12 12 12 12 11 11 11 12 11 10 10 9 8 9 11 10 11 12 12 11 12 13 13 13 14 13 13 13 14 14 15 15 15 16 16 16 16 16 16 16 17 18 19 20 21 22 22 22 21 21 20 20 21 21 22
21 21 21 21 20 20 20 20 21 22 23 23 23 23 22 22 22 21 20 20 20 19 17 16 16 16 15 14 14 14 14 14 14 13 13 13 13 13 12 12 11 10 9 11 14 13 13 13 13 13 13 14 15 15 15 15 15 15 15 16 17 17 17 17 17 17 18 18 18 18 19 20 22 22 23 23 23 23 22 21 21 21 21 22 22
21 21 21 21 20 20 19 20 21 22 23 23 23 23 22 22 22 21 20 22 21 19 18 18 17 16 16 17 17 17 17 16 16 15 15 15 14 14 14 14 13 12 11 14 16 16 15 14 15 15 14 15 17 17 17 17 17 17 17 18 19 19 19 19 19 19 19 19 20 20 21 22 23 24 24 24 24 24 23 22 22 22 22 22 23
22 21 21 20 19 19 20 21 21 22 22 22 22 23 22 22 21 21 21 22 22 20 19 19 18 17 17 19 19 19 19 18 18 17 16 16 16 16 16 16 16 14 14 16 17 17 16 15 15 16 16 16 18 19 19 19 19 19 19 20 20 21 21 21 21 21 21 21 22 22 23 24 24 25 25 25 25 25 24 24 24 24 24 23 24
23 22 21 19 20 21 21 22 22 22 22 22 22 22 22 21 21 21 23 23 22 22 20 19 19 19 19 20 20 19 20 20 20 19 17 17 17 18 18 19 18 17 16 17 18 18 18 17 16 17 17 17 18 20 20 20 20 20 21 21 22 22 23 23 23 23 23 24 24 24 24 25 25 26 26 26 26 26 26 26 26 26 26 26 26
25 23 21 21 23 24 23 22 22 23 23 23 23 22 21 21 21 22 23 23 23 22 21 19 20 21 21 21 20 20 21 21 20 20 19 18 19 20 20 19 18 17 17 18 18 18 19 18 17 18 18 18 19 21 21 21 21 21 22 22 23 23 24 25 25 26 26 27 27 27 26 26 27 28 29 28 29 29 28 28 28 29 29 29 29
25 24 24 25 26 25 23 23 24 24 24 23 22 21 21 22 23 24 24 23 23 23 21 20 21 21 22 22 22 22 22 22 21 20 20 20 20 21 21 19 19 19 19 18 18 18 19 19 18 19 20 20 20 21 22 22 22 21 22 22 23 24 26 26 27 28 28 29 30 30 30 30 29 30 30 31 31 31 31 31 31 32 32 32 33
25 27 27 28 27 25 23 24 25 25 24 23 22 22 22 23 24 24 24 23 23 22 20 19 20 20 21 22 22 22 22 22 21 21 20 21 21 21 21 20 20 21 20 19 18 19 19 20 20 21 22 23 23 23 22 22 23 23 23 23 23 25 26 27 28 28 29 30 32 33 33 33 33 33 32 33 34 34 34 34 35 35 36 36 37
26 29 29 27 26 25 24 25 26 25 24 24 22 21 22 22 23 23 22 22 21 21 19 18 18 19 20 22 22 23 23 22 21 21 21 22 22 22 22 21 21 21 21 21 20 20 21 22 22 23 23 24 25 25 24 23 23 24 24 24 25 27 27 28 29 30 31 32 34 34 34 35 36 36 36 36 37 37 36 36 37 38 39 39 40
26 29 28 26 26 26 26 25 24 24 25 24 22 21 21 21 21 21 20 20 20 20 19 18 18 19 20 21 23 24 24 23 23 22 22 23 23 23 22 22 21 21 22 23 23 23 23 24 24 24 25 26 26 26 26 26 26 26 26 26 27 27 28 30 30 31 32 34 34 34 34 36 37 38 39 40 41 41 40 40 40 41 42 43 44
25 27 27 28 29 29 27 24 23 24 25 25 23 22 22 21 21 21 21 20 20 20 19 19 20 21 21 22 23 23 23 23 22 23 23 23 23 23 23 23 22 22 23 24 25 26 26 26 26 26 27 27 27 27 27 28 28 29 30 30 30 30 30 31 32 32 33 35 35 35 35 37 38 37 39 40 42 43 44 43 44 45 46 47 47
23 26 28 29 30 29 26 23 23 24 25 25 25 24 24 23 23 23 23 23 23 22 22 22 23 24 24 24 22 21 21 21 21 22 22 23 23 23 24 24 24 24 25 26 27 27 28 28 28 28 28 29 29 29 29 30 30 31 32 34 34 34 34 34 34 36 37 38 38 38 38 39 40 40 40 41 42 44 45 45 45 46 48 49 50
23 25 27 28 28 26 24 23 24 25 26 26 26 26 26 26 26 26 27 26 25 25 26 26 25 25 26 25 22 21 21 21 21 21 22 23 24 24 24 25 26 27 27 27 28 28 29 29 29 29 30 31 32 32 33 33 34 34 35 36 37 37 36 36 37 38 40 41 41 42 43 42 43 44 43 43 44 46 47 49 49 49 51 52 52
24 25 24 24 25 24 23 24 25 25 26 26 27 27 27 27 27 28 28 28 27 28 28 27 25 25 26 25 24 23 22 21 21 22 23 23 24 24 25 26 27 28 28 29 29 29 29 30 31 31 32 33 34 34 35 36 37 37 37 38 40 40 39 39 40 40 42 43 43 45 46 46 46 46 45 45 47 48 49 52 54 53 52 51 50
24 23 23 23 24 24 25 25 26 25 25 25 26 26 26 27 27 28 28 28 28 28 29 29 28 27 27 26 25 24 23 22 22 22 23 24 25 25 26 27 27 28 29 30 31 31 31 32 33 33 34 35 36 36 37 38 39 39 40 42 42 43 43 44 44 45 45 46 47 48 49 48 48 47 46 47 48 49 50 52 53 51 48 48 49
24 22 22 23 24 25 25 26 26 26 25 25 25 26 26 26 27 28 28 28 28 29 31 32 31 29 27 26 25 24 24 24 24 24 25 25 26 26 27 28 29 30 30 31 32 33 33 34 34 35 35 36 37 38 39 40 41 42 44 45 45 46 47 48 49 49 50 51 51 52 52 51 51 50 50 52 53 53 52 51 51 51 51 52 53
24 23 23 23 24 24 25 26 27 28 28 28 27 28 28 28 29 29 30 30 30 31 32 31 29 28 26 26 26 26 26 26 27 28 28 28 29 29 30 30 31 31 31 32 32 33 34 34 35 36 37 38 39 40 41 43 44 46 47 48 49 50 52 53 53 53 53 53 54 55 54 54 55 54 54 57 59 58 55 54 55 56 56 56 56
25 23 23 23 24 25 25 27 29 30 31 31 30 30 31 31 30 30 30 30 29 29 29 28 26 26 25 25 26 27 28 29 30 30 31 31 31 31 31 31 31 31 32 32 33 34 35 36 37 38 39 41 42 43 45 46 48 49 50 51 53 54 55 56 56 55 56 56 56 58 58 56 57 56 55 58 61 59 57 57 58 59 59 58 58
Wind_Direction
263 258 252 249 245 241 242 247 254 262 269 271 272 273 275 274 272 271 266 256 257 266 276 301 327 325 295 289 291 266 271 279 273 280 297 299 300 299 295 293 291 285 279 274 272 272 273 272 270 268 265 264 262 260 257 253 251 250 250 250 252 254 257 260 263 266 270 275 278 280 281 281 282 282 282 282 282 282 282 283 283 283 283 283 282
256 249 245 241 234 231 236 243 254 265 267 263 262 265 267 265 266 267 260 252 254 267 280 306 309 280 272 286 305 293 276 274 293 293 282 278 285 294 293 289 287 280 274 271 269 269 268 267 266 266 266 266 265 263 261 259 256 254 254 254 254 255 256 258 262 266 270 273 274 276 277 277 278 278 279 279 279 280 281 282 283 283 283 282 282
250 241 240 234 219 219 233 244 256 259 256 258 260 260 258 257 259 261 254 246 248 259 273 296 288 271 276 290 305 315 311 292 297 296 281 279 287 293 293 290 285 276 271 268 267 268 267 265 264 263 263 263 264 264 263 262 261 261 259 258 257 257 257 259 263 267 270 273 274 276 276 276 276 277 278 279 279 280 281 281 281 281 281 281 281
249 240 230 214 201 209 231 244 249 246 250 255 252 246 243 250 255 254 249 244 247 255 276 316 288 275 275 292 319 333 342 317 299 298 299 302 298 294 291 290 286 278 273 270 267 269 267 266 264 261 259 259 261 261 262 264 265 265 263 263 263 263 263 264 267 269 272 274 276 278 279 278 279 281 283 284 283 281 281 280 280 280 281 283 284
247 236 218 204 202 211 224 234 236 239 244 240 232 228 230 242 247 245 247 246 252 260 282 333 284 275 280 315 347 341 335 322 308 309 317 317 310 304 296 288 282 277 276 275 273 269 266 266 263 262 260 260 261 262 265 267 269 269 269 270 270 271 271 272 273 275 277 279 281 283 283 284 285 287 289 289 287 285 283 282 282 282 282 284 285
239 231 212 204 211 213 218 227 228 231 229 219 214 214 216 225 235 239 243 246 251 258 243 182 259 282 307 337 348 338 324 322 320 325 330 322 312 309 303 289 274 272 277 278 275 266 264 264 263 263 263 264 265 266 270 272 273 275 275 275 274 276 277 278 279 281 283 284 285 285 285 286 287 288 292 296 299 296 294 291 289 288 288 288 288
231 219 203 202 212 214 224 229 222 223 216 208 206 207 210 215 231 237 236 241 245 251 238 171 203 276 321 338 342 341 328 332 336 336 332 323 317 313 307 299 277 276 275 265 267 266 266 264 262 262 262 266 268 271 273 274 275 276 277 277 279 282 283 284 286 288 291 291 291 288 285 287 288 295 303 309 311 307 302 299 299 298 297 299 300
219 203 199 207 217 220 225 223 216 214 208 204 203 207 211 208 226 238 234 238 241 247 248 192 202 255 322 331 332 336 332 343 348 343 337 331 334 331 321 319 288 270 255 240 252 264 268 265 260 259 260 264 268 271 272 274 277 278 280 284 286 289 290 292 296 300 304 304 300 297 298 304 309 313 315 315 313 310 308 308 310 311 311 312 313
214 210 213 216 224 227 225 217 208 204 203 201 200 211 214 205 221 239 243 244 242 251 261 248 253 276 343 340 325 326 334 351 355 351 349 345 346 341 338 347 289 247 247 253 261 257 252 255 256 259 266 269 265 262 265 273 278 278 282 290 292 295 300 306 313 317 317 311 307 311 318 320 321 322 320 318 315 313 315 318 322 325 325 322 319
218 223 220 218 226 229 221 212 201 202 206 199 201 215 214 205 214 228 245 253 253 257 262 262 270 279 330 335 321 324 337 358 1 358 8 9 4 1 354 353 300 251 280 303 308 255 228 230 239 245 261 254 245 245 255 271 277 280 292 304 297 296 309 316 321 322 313 305 306 314 321 320 320 323 324 323 323 324 325 326 329 332 330 324 319
218 224 223 225 229 225 218 210 199 205 211 203 205 216 212 207 207 210 231 252 258 260 263 269 275 273 267 309 314 323 341 2 3 3 22 32 29 25 18 18 50 74 67 68 69 90 156 186 172 137 127 129 135 142 240 284 286 297 307 298 283 282 301 305 300 294 293 300 311 316 319 318 320 326 329 332 332 330 326 321 320 320 318 313 310
217 223 230 233 231 226 216 207 201 208 216 215 211 215 212 212 212 210 221 240 255 264 269 274 283 288 289 302 317 327 340 359 5 6 22 34 34 25 23 39 57 64 73 84 87 95 110 108 109 119 117 108 96 86 84 62 338 338 317 284 273 257 244 244 257 275 305 325 333 334 331 326 326 332 334 333 327 318 311 308 305 304 304 303 303
222 225 230 228 229 228 212 201 204 212 220 221 212 211 213 216 222 225 229 236 247 258 264 271 281 287 292 298 310 323 336 350 2 9 17 27 35 32 34 50 62 74 87 94 96 101 109 108 105 110 117 112 100 95 102 106 101 92 100 107 109 125 149 152 88 13 2 350 344 340 335 330 328 328 326 321 313 307 302 300 299 300 300 299 300
227 229 229 223 220 216 206 202 207 213 220 221 212 211 214 219 228 237 246 250 254 260 265 274 278 279 290 295 299 316 331 340 353 12 21 30 40 47 61 70 73 85 96 100 103 106 108 108 101 103 116 116 104 108 118 120 118 111 106 101 94 90 81 56 34 13 349 331 326 326 324 322 323 321 318 314 310 307 304 302 302 302 302 301 301
232 228 225 221 213 203 200 205 209 213 217 218 213 211 216 221 230 240 252 262 269 273 273 278 282 285 294 296 302 313 319 320 330 6 37 48 46 51 76 88 83 86 96 102 104 105 103 101 94 95 116 120 107 111 115 113 116 113 108 101 86 81 81 65 342 323 315 310 313 314 313 313 312 310 307 306 306 305 304 303 303 303 304 304 303
230 222 220 217 211 201 199 203 209 214 215 216 215 215 221 226 233 242 252 264 273 276 278 283 288 293 291 292 297 296 292 294 302 331 66 56 32 18 64 102 115 96 96 100 97 95 93 88 83 86 103 105 97 98 92 92 100 97 81 46 42 51 55 34 332 317 310 309 310 310 311 311 311 309 307 307 308 307 305 304 304 304 304 303 303
226 223 221 216 212 205 202 203 208 214 216 216 214 219 230 233 239 248 256 265 270 274 279 280 284 287 287 288 286 277 268 261 264 265 247 259 251 241 198 149 146 124 111 104 95 91 86 85 93 96 80 66 68 64 48 34 20 16 9 1 5 7 5 357 348 339 330 327 326 325 325 324 323 321 319 317 314 312 309 308 306 304 303 302 301
224 223 221 218 215 207 203 204 206 212 216 214 215 223 232 233 239 251 260 266 268 270 273 271 274 280 281 279 267 258 254 249 250 250 248 238 217 226 227 198 172 144 129 111 101 98 94 101 107 97 59 39 37 27 8 358 357 357 356 354 354 352 350 346 341 338 333 331 331 331 330 327 325 322 319 316 313 311 309 307 306 304 302 300 299
223 220 218 216 213 206 204 205 205 209 210 211 215 220 226 229 236 251 259 262 264 265 265 265 267 272 272 266 256 254 250 246 247 246 243 237 232 239 249 237 215 173 142 114 105 106 106 106 99 66 32 15 360 350 346 346 348 347 342 340 341 340 339 337 336 334 331 330 331 330 327 323 320 316 314 312 310 309 307 306 304 303 301 300 301
221 218 214 214 214 209 205 204 205 206 205 209 212 217 226 233 238 247 252 253 254 256 259 260 258 261 264 258 254 256 254 248 253 254 245 246 251 242 234 242 239 201 156 133 113 111 112 106 93 56 350 336 332 331 334 336 335 334 332 332 333 334 334 336 335 333 331 331 330 328 324 320 318 315 314 313 311 310 308 306 304 302 302 302 302
216 218 218 218 217 213 208 204 203 203 204 208 211 218 229 236 239 239 240 243 245 246 249 252 254 257 261 259 255 257 258 257 261 263 254 251 252 239 231 237 241 224 174 149 136 128 136 284 286 306 311 310 315 320 323 326 327 327 328 328 329 330 334 334 332 331 331 330 328 325 322 319 319 318 318 316 314 311 308 305 303 301 301 301 302
212 218 222 222 219 215 213 208 204 203 207 212 217 223 229 235 238 236 234 236 239 242 243 245 250 254 258 259 256 256 258 258 262 264 260 253 243 235 235 236 232 234 226 195 183 221 270 276 275 281 290 297 308 316 320 322 322 323 321 321 322 326 330 330 329 329 328 326 323 320 318 317 317 317 317 316 313 310 307 304 302 301 300 300 301
211 219 221 222 220 215 212 211 208 207 213 221 227 231 234 236 238 236 237 237 237 242 245 244 246 251 256 256 257 258 258 258 261 262 261 254 240 233 238 238 225 223 235 228 221 236 257 267 269 273 275 283 297 306 315 318 317 318 315 314 318 325 328 328 326 325 322 320 318 315 314 313 314 314 314 313 310 307 305 303 302 301 300 299 299
208 215 220 222 222 216 211 211 211 214 221 229 235 238 239 239 240 239 241 243 243 242 244 245 245 250 256 259 261 263 262 259 259 259 258 252 242 237 241 239 226 219 229 231 235 220 211 248 260 275 284 286 297 309 321 321 317 315 312 313 319 324 325 322 319 316 313 312 312 312 311 311 312 312 311 309 306 304 302 300 299 298 297 296 295
205 213 220 222 223 219 216 217 219 223 228 233 238 240 240 240 240 241 244 247 246 244 246 248 249 253 258 261 263 265 264 261 258 255 253 249 242 237 237 237 230 227 228 228 230 203 195 230 237 238 276 290 308 315 325 322 317 312 307 310 313 313 312 310 310 308 307 309 312 314 313 311 311 309 307 303 301 299 297 296 295 295 295 294 293
208 215 220 223 227 225 225 227 229 233 235 239 242 243 244 244 243 242 244 247 247 244 246 251 255 259 263 265 265 265 264 261 257 253 250 247 241 234 231 230 228 229 227 220 216 194 199 225 213 180 228 251 270 288 309 312 307 302 298 300 301 301 303 304 305 305 307 313 316 315 312 309 307 305 302 300 298 297 296 297 297 296 296 295 295
214 220 222 225 229 230 231 235 237 239 242 246 247 248 248 248 247 247 246 246 245 243 245 251 257 263 268 269 268 268 264 260 258 254 249 245 238 232 229 226 223 222 220 210 198 189 207 227 210 185 223 248 263 277 298 301 297 293 291 293 293 294 298 300 301 303 307 312 314 312 308 305 303 300 299 298 297 298 298 298 299 299 298 298 297
229 230 228 229 230 232 235 238 241 243 245 248 250 250 251 250 249 249 249 247 243 242 242 248 256 262 266 268 269 268 265 260 258 253 248 243 235 228 226 224 215 209 212 207 192 191 212 226 221 216 239 261 271 285 298 297 296 292 289 289 290 293 296 297 298 300 304 310 311 307 302 298 296 294 294 294 296 298 299 300 301 301 300 298 297
240 237 234 234 233 233 235 238 241 243 244 247 249 249 250 250 250 250 251 247 242 240 238 241 250 256 260 264 264 264 261 256 253 251 246 241 234 226 224 222 208 202 209 209 197 202 217 226 234 244 259 276 285 296 300 299 299 295 290 288 290 293 295 294 295 297 302 307 305 300 296 292 291 290 291 293 296 299 301 303 303 303 302 300 299
237 234 233 233 233 234 235 238 240 242 243 245 247 248 249 249 250 251 250 245 241 239 234 236 244 250 256 259 259 259 256 249 247 249 247 239 230 221 219 217 205 203 211 212 206 215 226 235 251 263 273 285 292 297 300 302 301 295 290 289 290 291 290 290 292 295 299 300 297 294 291 289 289 289 291 294 297 300 301 303 303 303 302 300 299
227 227 228 229 230 232 234 237 239 241 242 243 245 247 248 249 249 250 247 243 240 237 233 234 239 246 252 254 255 257 254 248 245 248 248 239 226 215 211 211 207 207 214 216 213 220 234 248 260 267 275 283 289 294 299 302 299 292 289 288 288 287 285 286 289 293 294 294 292 291 289 290 290 291 294 296 297 298 299 300 300 300 300 299 297
226 225 227 228 229 231 234 237 239 240 240 241 243 244 246 248 248 247 244 240 237 234 232 232 235 241 246 249 251 252 252 250 246 244 241 232 224 213 203 203 205 206 213 224 225 226 240 253 257 260 270 279 285 290 295 294 290 288 288 287 286 285 283 285 287 289 291 290 289 289 289 291 292 294 296 296 296 297 298 299 299 299 299 298 296
233 230 231 232 232 234 237 239 238 238 238 239 241 243 246 248 247 245 241 236 234 232 232 233 234 238 241 244 246 247 248 247 242 237 232 224 219 212 205 204 205 204 213 232 238 231 238 253 260 263 268 275 281 284 286 284 282 284 285 285 284 283 282 283 284 285 286 287 288 290 291 293 294 296 297 297 297 298 298 299 299 299 298 298 297
236 235 235 234 235 237 239 240 238 238 238 239 242 244 246 247 246 244 240 236 233 232 234 235 236 237 240 241 242 243 243 240 234 230 227 224 221 218 217 219 219 215 219 238 246 243 244 254 264 268 270 274 277 277 278 278 277 279 281 281 280 279 279 281 282 283 284 287 289 291 293 295 296 298 298 298 298 298 299 299 299 299 298 298 297
234 235 234 234 236 238 239 239 239 239 240 242 243 245 247 247 246 245 241 237 235 234 234 237 238 238 240 241 241 240 238 236 231 227 226 228 229 229 231 233 236 235 233 243 253 259 261 262 267 270 271 273 276 275 274 274 274 275 276 277 277 277 278 279 281 283 285 288 289 291 293 295 297 299 299 299 299 299 299 299 299 299 298 298 297
233 234 233 233 235 238 241 240 240 241 243 244 245 246 247 247 246 245 241 239 239 235 233 236 238 239 240 241 240 240 240 239 237 234 232 233 237 240 242 245 250 251 247 251 259 266 268 265 267 272 271 271 275 275 274 273 273 273 273 274 276 278 280 282 282 284 286 287 288 291 293 295 296 297 298 298 298 298 298 297 297 297 297 297 296
232 234 231 231 236 241 244 243 241 243 245 246 246 246 246 245 244 243 240 239 240 236 234 236 238 238 239 241 242 243 245 245 245 245 243 243 247 250 252 255 259 258 256 259 265 268 267 263 265 269 270 271 273 276 278 277 275 273 273 274 277 280 283 285 284 283 284 285 287 289 292 293 295 295 296 296 296 295 295 294 294 294 294 293 292
229 232 227 229 239 244 247 248 245 243 243 243 243 243 243 241 239 238 237 237 238 238 236 237 239 239 241 243 245 246 248 249 251 253 253 252 256 259 262 265 267 267 264 265 268 270 269 267 265 268 272 274 275 277 280 280 278 276 275 276 280 282 283 284 284 283 282 283 284 287 290 293 294 294 293 293 293 292 292 292 291 290 289 288 287
227 228 224 227 237 243 248 250 246 242 240 238 239 240 239 238 237 236 236 237 238 240 239 238 240 243 244 246 248 249 251 253 255 258 258 259 262 265 267 271 274 274 269 268 270 270 270 271 269 270 274 276 276 277 279 279 278 276 276 277 280 282 282 281 283 283 284 284 285 287 290 292 292 292 291 291 290 290 290 290 289 288 287 287 287
229 226 223 226 235 240 245 248 246 242 239 238 238 239 239 239 238 238 239 239 241 243 242 240 242 246 248 249 250 251 252 255 257 259 261 263 266 269 271 272 274 274 273 271 271 270 271 272 271 272 275 277 277 277 277 278 279 279 280 280 280 280 281 282 283 284 285 286 286 288 290 290 290 290 290 290 290 289 288 289 288 287 287 288 288
231 228 227 230 234 238 242 245 244 242 239 237 238 239 241 241 240 241 242 242 243 245 243 242 244 247 249 251 252 253 253 255 257 260 263 265 267 270 271 271 271 273 274 272 270 269 270 271 272 274 277 278 279 278 278 277 278 281 284 284 284 284 284 284 283 283 284 285 286 288 289 290 291 290 290 290 289 289 289 289 288 288 288 288 288
233 230 230 232 234 237 240 243 244 242 238 237 238 240 242 243 242 241 241 240 241 241 240 241 245 248 252 254 256 256 256 257 258 261 263 265 266 267 268 268 268 270 271 271 269 268 268 270 272 275 277 278 279 281 282 282 281 280 281 282 283 284 285 285 284 283 284 284 285 287 288 290 291 291 291 290 289 289 289 289 288 288 288 288 288
235 227 226 227 229 235 239 242 244 242 237 236 238 239 242 243 243 241 238 236 236 238 240 243 248 252 256 258 258 259 259 259 260 261 262 263 264 264 264 264 264 266 268 270 270 268 267 269 272 274 276 277 279 281 283 285 286 285 282 280 278 278 279 281 281 281 281 281 283 285 288 288 288 290 291 291 290 289 290 289 289 288 288 287 287
232 223 224 225 227 234 239 240 240 238 235 235 237 238 240 241 241 240 238 237 238 242 246 248 252 256 258 259 259 260 260 260 259 259 259 260 261 261 262 262 262 263 265 267 268 268 268 271 274 277 279 279 280 282 283 285 287 287 286 284 282 281 280 281 282 282 283 284 286 287 286 285 286 288 288 288 288 289 289 289 289 288 287 286 286
230 224 223 225 228 235 238 236 234 234 234 236 238 240 241 242 242 241 241 241 243 248 250 251 253 257 259 260 260 260 259 259 258 258 259 259 260 261 262 264 264 265 265 266 267 268 270 274 277 280 282 284 284 284 285 285 285 285 285 284 284 283 284 288 291 292 291 292 292 291 289 286 286 288 287 285 283 284 284 285 285 285 285 285 286
223 220 219 223 229 234 234 232 231 232 234 237 240 243 245 246 246 245 245 245 247 250 252 252 254 258 260 260 259 257 255 255 255 257 259 260 262 263 264 266 267 268 268 268 268 270 273 277 280 282 284 285 286 286 286 285 284 283 283 282 282 282 285 290 293 293 293 293 293 292 291 289 288 290 290 286 283 282 283 285 285 284 283 284 285
211 214 218 224 229 230 230 230 231 232 235 239 244 247 249 249 249 248 249 249 249 251 252 254 257 259 257 255 254 254 253 253 256 258 260 261 263 264 264 265 267 268 269 270 271 273 275 278 280 282 283 283 284 285 285 285 284 284 283 284 285 285 287 290 291 291 291 290 290 290 290 290 289 290 290 286 284 284 286 288 288 286 285 285 285
212 219 222 225 227 227 229 231 233 235 238 243 247 250 250 250 250 250 252 252 253 253 254 257 261 260 253 248 249 252 254 256 258 259 260 261 261 262 263 264 266 268 270 271 274 276 278 279 281 282 282 283 284 285 285 285 285 285 285 287 287 288 289 290 291 291 291 290 289 289 290 291 291 290 288 286 285 286 288 290 290 288 286 287 287
218 226 229 230 231 231 232 234 236 238 240 245 248 249 250 251 252 253 254 255 256 256 256 259 260 257 250 244 245 250 253 255 258 258 259 260 260 262 264 266 268 270 272 274 276 278 279 281 282 283 284 284 285 285 285 285 286 286 287 287 287 287 288 290 291 291 291 290 289 289 291 292 291 288 287 286 285 286 287 288 287 286 286 287 288
225 234 236 234 233 233 235 237 240 241 244 246 247 249 252 255 257 256 255 255 256 256 257 258 258 255 250 246 247 250 252 254 256 257 257 258 260 262 265 267 270 272 274 275 276 277 279 280 281 282 283 284 285 285 285 285 285 286 286 287 286 287 288 290 291 291 290 289 288 289 289 289 287 287 287 286 285 285 286 286 284 284 285 286 286
232 237 237 236 236 238 240 241 242 244 245 246 248 251 254 257 257 255 253 252 252 254 256 256 254 252 251 250 251 252 252 253 254 256 257 259 262 264 267 269 271 272 273 274 275 276 278 279 281 282 284 284 285 285 285 285 285 285 286 287 287 288 290 290 291 289 288 288 287 287 286 286 285 286 285 284 284 284 284 284 283 283 283 284 285
Height
5834 5834 5834 5834 5835 5835 5836 5836 5836 5836 5836 5836 5836 5836 5837 5837 5836 5836 5836 5836 5835 5833 5834 5837 5838 5837 5834 5832 5832 5834 5835 5836 5836 5837 5837 5835 5834 5834 5833 5833 5834 5834 5834 5834 5834 5834 5835 5835 5835 5835 5836 5836 5837 5837 5837 5837 5837 5837 5837 5837 5837 5837 5837 5837 5837 5837 5837 5836 5836 5836 5835 5835 5835 5834 5834 5834 5834 5833 5833 5833 5832 5832 5832 5831 5831
5832 5832 5832 5833 5834 5834 5835 5835 5835 5835 5835 5835 5835 5835 5835 5835 5835 5835 5835 5835 5833 5833 5834 5837 5837 5835 5832 5830 5830 5832 5835 5836 5835 5835 5834 5833 5832 5832 5832 5832 5832 5831 5832 5832 5832 5833 5833 5833 5834 5834 5834 5835 5835 5835 5836 5836 5836 5836 5836 5836 5836 5836 5836 5836 5836 5835 5835 5835 5835 5835 5834 5834 5833 5833 5833 5832 5832 5832 5832 5831 5831 5830 5830 5830 5829
5830 5830 5830 5831 5832 5833 5833 5834 5834 5834 5834 5833 5833 5833 5833 5833 5833 5834 5834 5833 5832 5832 5834 5836 5835 5833 5831 5829 5829 5831 5833 5834 5833 5831 5831 5831 5832 5831 5831 5830 5830 5830 5830 5830 5830 5831 5831 5832 5832 5833 5833 5833 5834 5834 5834 5834 5834 5834 5834 5834 5834 5834 5834 5834 5834 5834 5834 5834 5833 5833 5833 5833 5832 5832 5832 5831 5831 5831 5830 5830 5829 5829 5828 5828 5828
5828 5829 5829 5829 5830 5832 5832 5833 5833 5832 5832 5832 5832 5831 5831 5831 5832 5832 5832 5832 5831 5831 5833 5834 5833 5831 5830 5828 5829 5831 5832 5832 5831 5830 5830 5830 5830 5830 5829 5829 5828 5828 5828 5828 5829 5829 5830 5830 5831 5831 5831 5832 5832 5832 5832 5832 5832 5833 5833 5833 5833 5833 5833 5833 5833 5833 5833 5832 5832 5832 5832 5831 5831 5831 5831 5830 5830 5829 5829 5828 5827 5827 5826 5826 5826
5827 5827 5827 5828 5829 5830 5831 5831 5831 5831 5831 5831 5831 5830 5830 5830 5830 5830 5830 5830 5830 5830 5832 5833 5832 5829 5828 5829 5830 5831 5831 5830 5830 5829 5829 5829 5829 5828 5827 5827 5827 5827 5827 5827 5827 5827 5828 5828 5829 5830 5830 5830 5830 5830 5831 5831 5831 5831 5831 5831 5831 5831 5832 5832 5832 5832 5831 5831 5831 5831 5830 5830 5830 5830 5829 5829 5828 5828 5827 5827 5826 5826 5825 5825 5824
5825 5825 5826 5827 5828 5829 5829 5829 5829 5830 5830 5830 5829 5829 5829 5829 5829 5829 5829 5829 5829 5829 5831 5831 5830 5828 5827 5828 5830 5831 5830 5829 5828 5828 5829 5828 5826 5826 5826 5825 5825 5826 5826 5826 5826 5826 5826 5827 5828 5828 5829 5829 5829 5829 5829 5829 5829 5829 5830 5830 5830 5830 5830 5830 5830 5830 5830 5830 5830 5829 5829 5829 5828 5828 5828 5827 5827 5826 5826 5825 5825 5824 5824 5823 5823
5822 5823 5824 5826 5827 5827 5828 5828 5828 5828 5828 5828 5828 5828 5828 5828 5827 5827 5828 5828 5828 5828 5829 5830 5829 5827 5827 5828 5829 5829 5829 5828 5828 5828 5827 5826 5825 5825 5825 5824 5824 5824 5825 5825 5825 5825 5825 5826 5827 5827 5828 5828 5828 5828 5828 5828 5828 5828 5828 5828 5828 5829 5829 5829 5829 5829 5829 5829 5828 5828 5828 5827 5827 5827 5826 5826 5826 5825 5825 5824 5824 5823 5823 5822 5821
5821 5822 5823 5824 5825 5826 5827 5827 5827 5827 5827 5827 5826 5826 5827 5827 5827 5826 5826 5826 5827 5827 5827 5828 5828 5827 5827 5827 5828 5828 5827 5828 5828 5827 5826 5825 5824 5824 5824 5824 5824 5823 5823 5823 5824 5824 5825 5825 5826 5826 5826 5827 5827 5827 5827 5827 5827 5827 5827 5827 5828 5828 5828 5828 5828 5828 5827 5827 5827 5827 5826 5826 5825 5825 5825 5824 5824 5824 5823 5823 5822 5822 5822 5821 5820
5820 5821 5822 5823 5823 5824 5825 5826 5825 5825 5825 5825 5825 5825 5826 5827 5826 5825 5825 5825 5826 5825 5826 5827 5827 5827 5827 5827 5826 5826 5826 5827 5827 5826 5825 5824 5824 5823 5823 5823 5823 5823 5823 5823 5823 5823 5824 5824 5824 5825 5825 5826 5826 5826 5826 5826 5826 5826 5826 5827 5827 5827 5827 5827 5827 5826 5826 5826 5826 5825 5825 5824 5824 5823 5823 5823 5823 5822 5822 5822 5822 5821 5821 5820 5820
5819 5819 5820 5821 5822 5823 5824 5823 5823 5823 5823 5823 5824 5824 5825 5826 5826 5825 5825 5825 5825 5825 5825 5826 5826 5826 5826 5826 5825 5825 5825 5826 5826 5826 5825 5823 5823 5823 5822 5823 5823 5823 5822 5822 5823 5823 5823 5823 5824 5824 5825 5825 5825 5825 5825 5825 5825 5825 5826 5826 5826 5826 5826 5826 5825 5825 5825 5825 5824 5824 5823 5823 5823 5822 5822 5822 5822 5822 5821 5821 5821 5821 5821 5820 5820
5817 5818 5818 5820 5822 5823 5822 5821 5821 5821 5822 5822 5823 5823 5824 5825 5825 5825 5825 5824 5824 5824 5824 5825 5825 5825 5825 5825 5825 5824 5824 5824 5824 5824 5824 5823 5823 5822 5822 5822 5822 5822 5822 5822 5822 5823 5823 5823 5823 5824 5824 5824 5824 5824 5824 5824 5824 5824 5825 5825 5825 5825 5825 5824 5824 5824 5824 5824 5823 5823 5823 5822 5822 5822 5822 5822 5821 5821 5821 5821 5821 5821 5820 5820 5819
5815 5815 5817 5818 5820 5821 5820 5820 5821 5821 5821 5822 5822 5823 5823 5824 5825 5825 5825 5825 5824 5824 5824 5824 5824 5824 5824 5824 5824 5824 5823 5823 5823 5823 5823 5823 5823 5823 5822 5822 5822 5822 5822 5822 5822 5822 5823 5823 5823 5823 5823 5823 5823 5823 5823 5823 5823 5824 5824 5824 5824 5824 5824 5823 5823 5823 5823 5823 5823 5822 5822 5822 5822 5822 5821 5821 5821 5821 5820 5820 5820 5820 5820 5819 5818
5813 5813 5815 5817 5817 5818 5818 5819 5820 5820 5820 5821 5821 5821 5822 5823 5823 5824 5824 5824 5824 5824 5824 5824 5824 5823 5823 5823 5823 5823 5823 5823 5823 5823 5823 5823 5823 5823 5822 5822 5822 5822 5822 5822 5822 5822 5822 5823 5823 5823 5823 5823 5823 5823 5823 5823 5823 5823 5823 5823 5823 5823 5823 5823 5823 5822 5822 5822 5822 5822 5822 5822 5822 5821 5821 5821 5821 5820 5820 5820 5819 5819 5819 5818 5817
5811 5812 5813 5814 5814 5815 5816 5818 5819 5819 5819 5820 5820 5820 5821 5822 5822 5822 5822 5823 5823 5823 5823 5823 5823 5823 5823 5823 5822 5822 5822 5823 5823 5823 5823 5823 5823 5823 5822 5822 5823 5823 5822 5822 5822 5822 5823 5823 5823 5823 5823 5822 5822 5822 5822 5823 5823 5823 5823 5823 5823 5823 5823 5823 5823 5822 5822 5822 5822 5822 5822 5821 5821 5821 5820 5820 5820 5820 5819 5819 5819 5818 5818 5817 5816
5810 5810 5811 5812 5813 5814 5815 5816 5817 5818 5818 5819 5819 5820 5820 5821 5821 5821 5821 5821 5822 5822 5822 5822 5821 5821 5822 5822 5821 5821 5821 5822 5822 5822 5822 5822 5822 5822 5822 5823 5823 5823 5822 5822 5823 5823 5823 5823 5823 5823 5823 5822 5822 5822 5822 5822 5823 5823 5823 5823 5823 5823 5823 5823 5823 5823 5822 5822 5822 5822 5821 5821 5821 5820 5820 5820 5819 5819 5819 5818 5818 5817 5816 5816 5815
5807 5808 5809 5811 5812 5813 5814 5815 5816 5817 5817 5817 5818 5819 5819 5819 5820 5820 5820 5820 5821 5820 5820 5820 5820 5820 5820 5821 5820 5820 5821 5820 5820 5821 5822 5822 5822 5822 5822 5822 5823 5823 5822 5822 5822 5823 5823 5823 5823 5823 5823 5823 5822 5822 5822 5822 5823 5823 5823 5823 5823 5823 5823 5823 5822 5822 5822 5822 5822 5821 5821 5820 5820 5820 5819 5819 5818 5818 5817 5817 5817 5816 5815 5815 5814
5805 5806 5808 5809 5810 5812 5813 5814 5815 5815 5815 5816 5817 5817 5818 5818 5819 5819 5819 5819 5819 5819 5819 5819 5819 5819 5819 5820 5820 5819 5819 5819 5820 5820 5821 5821 5821 5821 5822 5822 5822 5822 5822 5822 5822 5822 5822 5822 5822 5822 5822 5822 5822 5822 5822 5822 5822 5822 5822 5822 5822 5822 5822 5822 5821 5821 5821 5821 5821 5821 5820 5820 5819 5819 5818 5818 5817 5817 5816 5816 5815 5815 5814 5813 5813
5804 5805 5806 5807 5808 5810 5811 5812 5813 5813 5814 5815 5815 5816 5816 5817 5817 5817 5817 5818 5818 5818 5818 5818 5818 5818 5818 5819 5819 5819 5819 5819 5819 5819 5820 5820 5821 5821 5821 5821 5821 5821 5821 5821 5821 5822 5822 5822 5822 5822 5822 5822 5822 5822 5822 5822 5822 5822 5822 5822 5822 5821 5821 5821 5820 5820 5820 5820 5820 5819 5819 5818 5818 5817 5817 5816 5816 5816 5815 5814 5814 5814 5813 5813 5812
5802 5803 5803 5804 5806 5807 5809 5809 5810 5811 5812 5813 5814 5814 5814 5815 5815 5815 5815 5816 5816 5816 5817 5817 5817 5817 5817 5817 5817 5817 5818 5818 5818 5819 5819 5819 5819 5820 5820 5820 5820 5820 5820 5820 5821 5821 5821 5821 5821 5821 5821 5821 5821 5822 5821 5821 5821 5821 5821 5821 5821 5821 5820 5820 5820 5820 5819 5819 5819 5818 5818 5817 5817 5816 5816 5816 5815 5815 5814 5814 5813 5813 5812 5812 5811
5799 5800 5801 5802 5803 5805 5806 5807 5808 5809 5810 5811 5812 5812 5812 5813 5813 5813 5814 5814 5815 5815 5815 5815 5815 5816 5816 5816 5816 5816 5817 5817 5818 5818 5818 5818 5818 5818 5819 5819 5819 5819 5820 5820 5820 5820 5820 5820 5820 5820 5820 5820 5820 5820 5820 5820 5820 5820 5820 5820 5820 5820 5820 5819 5819 5819 5818 5818 5818 5817 5817 5816 5816 5816 5815 5815 5814 5814 5813 5813 5812 5812 5811 5811 5810
5797 5798 5799 5801 5802 5803 5805 5806 5807 5807 5808 5809 5810 5810 5811 5811 5811 5812 5812 5812 5813 5813 5813 5813 5814 5814 5814 5815 5815 5815 5815 5816 5817 5817 5817 5817 5817 5817 5817 5818 5818 5818 5819 5819 5819 5819 5819 5819 5819 5819 5819 5819 5819 5819 5819 5819 5819 5819 5819 5819 5819 5819 5819 5818 5818 5818 5817 5817 5816 5816 5816 5815 5815 5815 5814 5814 5813 5813 5812 5812 5811 5811 5810 5809 5809
5795 5796 5797 5799 5801 5802 5803 5804 5805 5806 5806 5807 5808 5808 5809 5809 5810 5810 5811 5811 5811 5811 5812 5812 5812 5812 5813 5814 5814 5814 5814 5815 5815 5815 5815 5815 5815 5816 5816 5816 5817 5817 5817 5818 5818 5818 5818 5817 5817 5817 5817 5817 5817 5818 5818 5818 5818 5818 5818 5818 5818 5817 5817 5817 5817 5816 5816 5816 5815 5815 5815 5814 5814 5813 5813 5813 5812 5812 5812 5811 5811 5810 5809 5808 5808
5793 5794 5796 5798 5799 5800 5801 5802 5803 5804 5805 5805 5806 5807 5807 5808 5808 5808 5808 5809 5809 5809 5810 5810 5810 5810 5811 5812 5812 5813 5813 5813 5813 5814 5814 5814 5814 5814 5814 5814 5815 5816 5816 5816 5816 5816 5816 5815 5815 5816 5816 5816 5817 5817 5817 5817 5817 5817 5817 5817 5816 5816 5816 5815 5815 5815 5815 5814 5814 5814 5814 5813 5813 5812 5812 5812 5811 5811 5811 5810 5810 5809 5808 5807 5806
5791 5793 5795 5796 5798 5799 5800 5801 5801 5802 5803 5804 5804 5805 5806 5806 5806 5807 5807 5807 5808 5808 5808 5808 5808 5809 5809 5810 5810 5810 5811 5811 5812 5812 5812 5812 5812 5812 5812 5813 5814 5814 5814 5814 5815 5815 5815 5814 5814 5815 5815 5815 5815 5815 5816 5816 5816 5816 5816 5815 5815 5814 5814 5814 5814 5814 5813 5813 5813 5813 5813 5812 5812 5811 5811 5811 5810 5810 5810 5809 5809 5808 5807 5806 5805
5790 5792 5793 5795 5796 5797 5798 5799 5800 5800 5801 5802 5802 5803 5803 5804 5804 5805 5805 5805 5806 5806 5806 5806 5807 5807 5807 5808 5808 5808 5808 5809 5809 5810 5810 5810 5810 5811 5811 5811 5812 5812 5812 5813 5813 5814 5814 5813 5813 5814 5814 5814 5814 5814 5814 5814 5815 5815 5814 5814 5813 5813 5813 5812 5812 5812 5812 5812 5812 5812 5812 5812 5811 5811 5810 5810 5809 5809 5808 5808 5807 5806 5805 5805 5804
5789 5790 5792 5793 5794 5795 5796 5796 5797 5798 5799 5799 5800 5800 5801 5802 5802 5803 5803 5804 5804 5805 5805 5805 5805 5805 5805 5805 5805 5805 5806 5806 5807 5808 5808 5808 5808 5809 5809 5809 5810 5810 5811 5812 5812 5812 5812 5811 5812 5813 5813 5813 5813 5813 5813 5813 5813 5813 5813 5812 5812 5811 5811 5811 5811 5811 5811 5811 5811 5811 5811 5811 5811 5810 5809 5809 5808 5807 5806 5806 5805 5804 5803 5803 5802
5787 5788 5789 5790 5791 5792 5793 5793 5794 5795 5796 5797 5798 5798 5799 5799 5800 5801 5801 5802 5802 5803 5803 5803 5803 5803 5803 5803 5803 5803 5804 5804 5805 5806 5807 5807 5807 5807 5807 5807 5808 5809 5809 5810 5810 5811 5810 5810 5810 5811 5811 5811 5811 5811 5811 5811 5811 5812 5811 5811 5811 5810 5810 5810 5810 5810 5809 5809 5809 5810 5810 5810 5809 5809 5808 5807 5807 5806 5805 5804 5803 5802 5801 5801 5800
5785 5786 5787 5788 5788 5789 5790 5790 5791 5792 5793 5794 5795 5796 5796 5797 5798 5798 5799 5800 5800 5800 5801 5801 5802 5802 5802 5802 5801 5801 5802 5802 5803 5803 5804 5805 5806 5806 5806 5806 5807 5808 5808 5808 5809 5809 5809 5808 5809 5810 5810 5810 5810 5810 5810 5810 5810 5810 5810 5810 5809 5809 5809 5808 5808 5808 5808 5807 5808 5808 5808 5808 5807 5807 5806 5805 5805 5804 5803 5802 5801 5800 5799 5798 5798
5782 5783 5784 5785 5786 5786 5787 5788 5788 5789 5791 5792 5793 5794 5794 5795 5795 5796 5797 5797 5798 5798 5799 5799 5799 5800 5800 5800 5799 5799 5800 5801 5801 5801 5802 5803 5804 5804 5804 5805 5806 5806 5806 5807 5808 5808 5807 5807 5807 5808 5808 5808 5808 5808 5808 5808 5808 5808 5808 5808 5807 5807 5807 5807 5806 5806 5806 5806 5806 5806 5806 5806 5805 5804 5804 5803 5802 5802 5801 5800 5799 5798 5797 5796 5795
5779 5780 5781 5782 5783 5783 5784 5785 5786 5787 5788 5789 5790 5791 5792 5793 5794 5794 5795 5795 5795 5796 5797 5797 5797 5797 5797 5797 5797 5797 5798 5799 5799 5800 5801 5802 5802 5803 5803 5803 5804 5805 5805 5806 5806 5806 5806 5805 5806 5806 5806 5806 5807 5807 5807 5807 5807 5807 5806 5806 5805 5805 5805 5805 5804 5804 5804 5804 5804 5804 5804 5803 5803 5802 5802 5801 5800 5799 5799 5797 5796 5795 5794 5793 5793
5777 5777 5778 5779 5779 5780 5781 5782 5783 5784 5785 5787 5787 5789 5789 5790 5792 5793 5793 5793 5793 5794 5794 5795 5795 5795 5795 5795 5795 5795 5796 5797 5798 5798 5799 5800 5801 5801 5801 5802 5803 5803 5804 5804 5805 5805 5804 5804 5804 5804 5805 5805 5805 5805 5805 5805 5805 5805 5804 5804 5803 5803 5803 5802 5802 5802 5802 5802 5802 5802 5801 5801 5800 5800 5799 5799 5798 5797 5796 5795 5794 5793 5792 5791 5790
5774 5775 5775 5776 5777 5778 5779 5779 5780 5781 5783 5784 5785 5786 5787 5788 5789 5790 5791 5791 5791 5792 5792 5792 5793 5793 5794 5794 5794 5794 5794 5795 5796 5797 5797 5798 5798 5799 5800 5800 5801 5802 5802 5803 5803 5803 5802 5802 5802 5803 5803 5803 5803 5803 5803 5803 5803 5802 5802 5801 5801 5801 5800 5800 5800 5800 5800 5800 5799 5799 5799 5798 5798 5797 5797 5796 5796 5795 5794 5793 5792 5791 5789 5788 5787
5772 5773 5773 5774 5774 5775 5776 5777 5778 5779 5780 5781 5782 5783 5784 5785 5787 5788 5788 5789 5789 5789 5790 5790 5791 5792 5792 5792 5792 5792 5792 5793 5794 5795 5795 5796 5796 5797 5798 5799 5800 5801 5801 5801 5801 5801 5801 5800 5800 5801 5801 5801 5801 5801 5801 5801 5800 5800 5800 5799 5799 5799 5798 5798 5798 5798 5798 5797 5797 5797 5796 5796 5795 5795 5794 5793 5793 5792 5791 5790 5789 5787 5786 5785 5784
5770 5770 5771 5771 5772 5773 5774 5775 5776 5777 5778 5779 5780 5781 5782 5783 5784 5785 5786 5787 5787 5787 5788 5789 5789 5790 5791 5791 5791 5791 5791 5791 5792 5793 5794 5794 5795 5795 5796 5797 5798 5799 5799 5799 5799 5799 5799 5798 5798 5799 5799 5799 5799 5799 5799 5799 5798 5797 5797 5797 5797 5796 5796 5796 5796 5795 5795 5795 5795 5794 5794 5793 5792 5792 5791 5790 5789 5788 5787 5786 5785 5784 5783 5782 5781
5767 5768 5768 5769 5769 5770 5771 5773 5774 5774 5775 5776 5777 5778 5779 5780 5781 5782 5784 5784 5784 5786 5786 5787 5787 5788 5789 5789 5789 5789 5789 5789 5790 5791 5792 5793 5793 5794 5794 5795 5796 5797 5798 5797 5796 5797 5797 5796 5796 5796 5797 5796 5797 5797 5796 5796 5795 5795 5794 5794 5794 5794 5793 5793 5793 5793 5793 5792 5792 5791 5791 5790 5789 5789 5788 5787 5786 5785 5784 5783 5782 5781 5780 5778 5778
5764 5765 5765 5766 5767 5768 5769 5770 5771 5772 5773 5774 5775 5776 5777 5778 5779 5780 5781 5781 5782 5784 5784 5784 5785 5786 5787 5787 5787 5787 5787 5788 5789 5789 5790 5791 5791 5792 5792 5793 5793 5795 5795 5794 5794 5794 5794 5794 5794 5794 5794 5794 5794 5794 5794 5793 5792 5792 5791 5791 5791 5791 5790 5790 5790 5790 5790 5789 5789 5788 5787 5787 5786 5785 5784 5783 5782 5781 5780 5779 5778 5777 5776 5775 5774
5761 5761 5762 5763 5764 5765 5766 5767 5768 5769 5770 5771 5772 5773 5774 5775 5776 5777 5778 5779 5780 5781 5781 5782 5783 5784 5784 5784 5784 5785 5786 5786 5787 5787 5788 5789 5789 5790 5790 5790 5791 5792 5792 5792 5792 5792 5792 5791 5791 5791 5792 5792 5791 5791 5791 5790 5789 5789 5788 5788 5787 5787 5787 5787 5787 5786 5786 5785 5785 5784 5784 5783 5782 5781 5780 5779 5778 5777 5776 5775 5774 5774 5773 5772 5771
5758 5758 5759 5760 5761 5762 5763 5764 5766 5767 5767 5768 5769 5770 5771 5772 5773 5774 5775 5776 5777 5777 5779 5779 5780 5780 5780 5781 5782 5783 5784 5784 5784 5785 5786 5786 5787 5787 5787 5787 5788 5789 5790 5789 5789 5789 5788 5788 5788 5788 5788 5789 5788 5787 5787 5787 5786 5785 5785 5784 5784 5784 5783 5783 5783 5783 5783 5782 5781 5781 5780 5779 5778 5777 5776 5775 5774 5773 5772 5771 5770 5769 5768 5768 5767
5754 5755 5757 5758 5759 5760 5762 5762 5763 5764 5765 5765 5766 5767 5769 5770 5771 5771 5772 5773 5774 5774 5776 5777 5777 5777 5777 5778 5779 5780 5781 5781 5782 5782 5783 5783 5784 5784 5784 5785 5785 5786 5786 5786 5786 5786 5785 5785 5785 5785 5785 5785 5785 5784 5784 5783 5783 5782 5781 5780 5780 5780 5780 5780 5780 5779 5779 5778 5777 5776 5776 5775 5774 5773 5772 5771 5770 5768 5767 5767 5766 5765 5764 5763 5762
5751 5752 5754 5755 5756 5758 5760 5760 5760 5761 5762 5763 5764 5765 5766 5767 5768 5769 5769 5771 5771 5771 5773 5774 5774 5774 5775 5775 5776 5777 5778 5779 5779 5779 5780 5780 5781 5781 5781 5782 5782 5782 5782 5783 5783 5783 5782 5782 5782 5782 5781 5781 5781 5781 5780 5779 5778 5778 5778 5777 5777 5777 5777 5776 5776 5775 5775 5774 5773 5772 5772 5771 5771 5769 5768 5767 5765 5764 5763 5762 5761 5760 5759 5758 5758
5748 5749 5750 5752 5754 5756 5758 5758 5757 5759 5760 5761 5762 5763 5763 5764 5765 5766 5767 5768 5768 5769 5770 5771 5771 5772 5772 5772 5773 5774 5775 5776 5776 5776 5777 5777 5778 5778 5778 5779 5779 5778 5778 5779 5779 5780 5779 5779 5778 5778 5778 5777 5777 5776 5776 5776 5775 5774 5773 5774 5774 5773 5773 5773 5772 5771 5770 5769 5769 5768 5767 5767 5766 5765 5764 5762 5761 5760 5759 5758 5757 5755 5754 5753 5752
5744 5746 5747 5750 5753 5754 5755 5754 5755 5756 5757 5758 5759 5760 5761 5761 5762 5763 5764 5765 5765 5766 5767 5768 5769 5769 5769 5770 5770 5771 5771 5772 5773 5774 5774 5774 5774 5774 5775 5775 5775 5775 5774 5774 5775 5776 5776 5775 5775 5775 5775 5774 5773 5772 5772 5772 5771 5770 5770 5769 5769 5768 5768 5768 5768 5767 5766 5765 5764 5764 5763 5762 5760 5759 5758 5757 5756 5755 5754 5753 5752 5751 5749 5748 5747
5741 5743 5745 5748 5750 5750 5751 5751 5752 5754 5755 5756 5757 5758 5758 5758 5759 5760 5761 5762 5762 5763 5764 5765 5766 5766 5766 5766 5767 5767 5768 5768 5769 5770 5770 5770 5770 5771 5771 5771 5772 5772 5771 5770 5770 5771 5771 5771 5771 5771 5771 5770 5769 5768 5768 5767 5767 5767 5766 5765 5765 5764 5764 5763 5763 5763 5762 5761 5760 5759 5758 5756 5755 5754 5753 5751 5749 5748 5748 5747 5746 5745 5743 5742 5741
5738 5741 5743 5745 5746 5746 5747 5748 5750 5751 5752 5753 5754 5755 5755 5756 5756 5757 5758 5759 5759 5760 5761 5762 5762 5762 5763 5763 5763 5764 5765 5765 5766 5766 5767 5767 5767 5767 5767 5767 5768 5768 5768 5767 5766 5766 5766 5767 5767 5766 5766 5765 5765 5765 5764 5763 5763 5762 5761 5760 5760 5759 5759 5758 5758 5758 5757 5755 5754 5755 5754 5751 5749 5750 5749 5746 5744 5742 5741 5740 5738 5737 5736 5734 5733
5735 5738 5739 5741 5742 5743 5744 5746 5747 5748 5749 5750 5751 5752 5752 5753 5754 5754 5755 5755 5756 5757 5758 5759 5759 5759 5759 5760 5761 5762 5762 5761 5762 5762 5762 5763 5763 5763 5763 5763 5763 5764 5764 5763 5763 5763 5763 5763 5762 5762 5761 5760 5760 5759 5759 5759 5758 5757 5756 5755 5754 5753 5752 5752 5751 5750 5750 5749 5748 5748 5748 5746 5744 5744 5744 5741 5739 5736 5734 5733 5732 5730 5728 5727 5726
5732 5734 5736 5737 5739 5740 5741 5742 5743 5744 5746 5747 5747 5748 5749 5750 5751 5751 5751 5752 5753 5753 5754 5755 5756 5756 5756 5757 5758 5758 5758 5758 5758 5758 5758 5759 5759 5759 5760 5760 5759 5759 5759 5759 5760 5760 5759 5759 5758 5757 5756 5756 5755 5754 5753 5753 5752 5752 5751 5750 5749 5748 5747 5746 5745 5744 5743 5743 5742 5741 5741 5740 5738 5738 5738 5735 5733 5731 5728 5727 5726 5724 5722 5721 5719
5729 5731 5733 5734 5735 5737 5738 5739 5740 5741 5742 5743 5744 5745 5746 5747 5747 5748 5748 5749 5750 5750 5750 5751 5753 5754 5753 5753 5753 5754 5754 5754 5754 5754 5755 5755 5755 5756 5756 5756 5755 5755 5755 5755 5755 5756 5755 5755 5754 5753 5752 5751 5750 5749 5748 5748 5747 5747 5746 5745 5744 5743 5742 5741 5740 5740 5738 5736 5735 5734 5733 5733 5732 5731 5731 5728 5726 5725 5724 5721 5719 5717 5714 5713 5712
5726 5728 5729 5731 5732 5733 5734 5735 5737 5738 5739 5740 5741 5742 5742 5743 5744 5744 5745 5745 5746 5746 5747 5747 5748 5749 5750 5750 5750 5750 5751 5751 5751 5751 5751 5751 5751 5751 5751 5751 5751 5751 5751 5751 5751 5751 5750 5749 5749 5748 5746 5746 5745 5744 5743 5742 5742 5741 5740 5739 5738 5737 5736 5735 5734 5734 5733 5730 5728 5726 5726 5726 5724 5723 5722 5720 5718 5718 5717 5715 5712 5710 5707 5706 5704
5722 5724 5726 5727 5729 5730 5731 5733 5734 5735 5736 5737 5738 5738 5739 5740 5740 5740 5741 5742 5743 5743 5743 5743 5744 5745 5746 5746 5746 5746 5747 5747 5747 5747 5747 5747 5747 5747 5747 5747 5747 5747 5747 5747 5747 5746 5745 5744 5744 5743 5742 5741 5740 5739 5738 5737 5736 5735 5734 5733 5732 5730 5729 5728 5728 5728 5726 5723 5720 5718 5718 5718 5716 5714 5712 5711 5711 5710 5709 5707 5705 5702 5701 5699 5697
5719 5721 5723 5724 5725 5727 5729 5730 5731 5732 5733 5734 5734 5735 5735 5736 5736 5736 5737 5738 5739 5739 5738 5739 5740 5741 5742 5743 5743 5743 5743 5742 5742 5742 5742 5743 5743 5743 5743 5743 5743 5743 5743 5743 5742 5742 5741 5740 5739 5738 5737 5736 5735 5734 5732 5731 5729 5728 5727 5727 5725 5723 5722 5721 5720 5721 5719 5717 5713 5710 5711 5711 5708 5706 5705 5703 5701 5702 5701 5699 5696 5695 5693 5692 5689
5716 5718 5719 5721 5722 5724 5726 5727 5727 5728 5729 5730 5730 5731 5732 5732 5732 5732 5733 5734 5735 5735 5735 5736 5737 5737 5738 5739 5739 5739 5738 5738 5738 5738 5738 5738 5739 5739 5739 5739 5739 5739 5738 5738 5737 5736 5736 5735 5734 5733 5732 5730 5729 5728 5726 5725 5723 5721 5720 5719 5717 5716 5714 5713 5713 5712 5711 5711 5707 5702 5702 5703 5701 5700 5699 5695 5692 5693 5693 5690 5687 5686 5685 5683 5680